Location: Watson Lake
(60.1170°N, 128.8000°W)
Time: 06:45:29
(UTC-07:00)

Daily predictions for brighter satellites

Satellite Brightness Start Highest point End
(mag) Time Altitude Azimuth Time Altitude Azimuth Time Altitude Azimuth
Cosmos 1066 Rocket 4.3 23:37:32 10° S 23:43:16 80° ESE 23:49:09 10° NNE
Cosmos 1603 3.7 23:39:08 10° SSW 23:44:44 72° ESE 23:50:21 10° NE
Cosmos 1842 3.8 23:43:53 10° SSE 23:47:38 43° E 23:51:22 10° NNE
NOSS 3-3 (A) 4.5 23:40:42 10° WNW 23:47:45 89° NNE 23:55:26 10° ESE
NOSS 3-3 (C) 4.5 23:40:49 10° WNW 23:47:52 89° NNE 23:55:32 10° ESE
Cosmos 2279 Rocket 4.3 23:43:54 10° NNW 23:50:07 68° W 23:56:18 10° S
Spot 4 4.4 23:46:46 10° S 23:51:27 53° W 23:56:10 10° NNW
CZ-4B R/B 4.3 23:48:21 10° NNE 23:53:13 54° WNW 23:58:09 10° SW
ATLAS CENTAUR R/B 2.1 23:48:41 10° WSW 23:53:46 77° NNW 23:58:46 10° ENE
